Tracking 31027 objects as of 19-Jul-2025
HD Live streaming from Space Station
objects crossing your sky now

DMSP 5D-2 F11 DEB

Track DMSP 5D-2 F11 DEB now!
10-day predictions


NORAD ID: 28310
Int'l Code: 1991-082X
Perigee: 567.3 km
Apogee: 569.6 km
Inclination: 98.5 °
Period: 95.9 minutes
Semi major axis: 6939 km
RCS: 0.0074 m2 (small)
Launch date: November 28, 1991
Source: United States (US)
Launch site: AIR FORCE WESTERN TEST RANGE (AFWTR)

Note: This is SATELLITE DEBRIS
Your satellite tracking list
SL-8 DEB
Track 1 satellite(s)




NASA's NSSDC Master Catalog

Two Line Element Set (TLE):
1 28310U 91082X   25199.25748807  .00051183  00000-0  39034-2 0  9990
2 28310  98.5471 312.0956 0001687 199.4011 160.7147 15.01815646110244
Source of the keplerian elements: AFSPC